Weather History for KOKB - August, 2013

Change the Weather History Date:

Wednesday, August 28, 2013

  Actual Average Record
Temperature  
Mean Temperature 73 °F 69 °F  
Max Temperature 82 °F 77 °F 91 °F (2009)
Min Temperature 63 °F 61 °F 54 °F (2009)
Degree Days  
Heating Degree Days 0 0  
Month to date heating degree days 0 0  
Since 1 June heating degree days 3 30  
Since 1 July heating degree days 0 3  
Cooling Degree Days 8 4  
Month to date cooling degree days 104 120  
Year to date cooling degree days 361 282  
Since 1 June cooling degree days 332 272  
Growing Degree Days 22 (Base 50)    
Moisture  
Dew Point 62 °F    
Average Humidity 69    
Maximum Humidity 87    
Minimum Humidity 51    
Precipitation  
Precipitation 0.00 in 0.01 in 0.00 in (2015)
Month to date precipitation T 0.13  
Year to date precipitation 2.33 9.52  
Since 1 July precipitation 0.01 0.25  
Snow  
Snow 0.00 in - - ()
Month to date snowfall 0.0  
Year to date snowfall 0.0  
Since 1 July snowfall 0.0  
Snow Depth 0.00 in    
Sea Level Pressure  
Sea Level Pressure 29.82 in    
Wind  
Wind Speed 4 mph (WSW)    
Max Wind Speed 13 mph    
Max Gust Speed 16 mph    
Visibility 8 miles    
Events      
T = Trace of Precipitation, MM = Missing Value Source: NWS Daily Summary

Daily Weather History Graph

Daily Weather History Graph

Search for Another Location

Airport or City:

Trip Planner

Search our weather history database for the weather conditions in past years. The results will help you decide how hot, cold, wet, or windy it might be!

Date:

Astronomy

Aug. 28, 2013 Rise Set
Actual Time 6:21 AM PDT 7:19 PM PDT
Civil Twilight 5:55 AM PDT 7:44 PM PDT
Nautical Twilight 5:25 AM PDT 8:14 PM PDT
Astronomical Twilight 4:54 AM PDT 8:45 PM PDT
Moon No Moon Rise 1:52 PM PDT (8/28)
Length of Visible Light 13h 48m
Length of Day
12h 57m
Last Quarter, 46% of the Moon is Illuminated
Aug 28
Last Quarter
Sep 5
New
Sep 12
First Quarter
Sep 19
Full
Sep 26
Last Quarter

Hourly Weather History & Observations

Time (PDT) Temp. Heat Index Dew Point Humidity Pressure Visibility Wind Dir Wind Speed Gust Speed Precip Events Conditions
12:52 AM 66.9 °F - 61.0 °F 81% 29.79 in 8.0 mi Calm Calm - N/A   Clear
1:52 AM 66.9 °F - 62.1 °F 84% 29.78 in 7.0 mi Calm Calm - N/A   Clear
2:52 AM 66.0 °F - 62.1 °F 87% 29.78 in 7.0 mi Calm Calm - N/A   Clear
3:52 AM 64.0 °F - 60.1 °F 87% 29.76 in 7.0 mi Calm Calm - N/A   Clear
4:52 AM 64.0 °F - 60.1 °F 87% 29.77 in 7.0 mi Calm Calm - N/A   Clear
5:52 AM 64.9 °F - 61.0 °F 87% 29.78 in 7.0 mi Calm Calm - N/A   Clear
6:52 AM 64.0 °F - 60.1 °F 87% 29.81 in 5.0 mi Calm Calm - N/A   Clear
7:52 AM 70.0 °F - 62.1 °F 76% 29.83 in 6.0 mi Calm Calm - N/A   Haze
8:52 AM 75.0 °F - 63.0 °F 66% 29.84 in 7.0 mi WSW 3.5 mph - N/A   Clear
9:52 AM 77.0 °F - 62.1 °F 60% 29.85 in 7.0 mi WSW 6.9 mph - N/A   Clear
10:52 AM 78.1 °F - 62.1 °F 58% 29.85 in 8.0 mi WSW 9.2 mph - N/A   Clear
11:52 AM 80.1 °F 81.2 °F 62.1 °F 54% 29.85 in 8.0 mi WSW 11.5 mph - N/A   Clear
12:52 PM 79.0 °F - 62.1 °F 56% 29.84 in 8.0 mi West 8.1 mph - N/A   Clear
1:52 PM 80.1 °F 81.1 °F 61.0 °F 52% 29.83 in 8.0 mi WSW 10.4 mph 16.1 mph N/A   Clear
2:52 PM 80.1 °F 81.1 °F 61.0 °F 52% 29.82 in 8.0 mi WSW 10.4 mph - N/A   Clear
3:52 PM 77.0 °F - 61.0 °F 58% 29.81 in 8.0 mi West 5.8 mph - N/A   Clear
4:52 PM 75.9 °F - 62.1 °F 62% 29.81 in 8.0 mi WSW 8.1 mph - N/A   Clear
5:52 PM 73.9 °F - 62.1 °F 66% 29.81 in 9.0 mi WSW 8.1 mph - N/A   Clear
6:52 PM 72.0 °F - 62.1 °F 71% 29.81 in 9.0 mi WSW 6.9 mph - N/A   Clear
7:52 PM 70.0 °F - 64.0 °F 81% 29.84 in 9.0 mi WSW 4.6 mph - N/A   Clear
8:52 PM 70.0 °F - 63.0 °F 78% 29.86 in 9.0 mi WSW 5.8 mph - N/A   Clear
9:52 PM 69.1 °F - 62.1 °F 78% 29.88 in 10.0 mi Calm Calm - N/A   Clear
10:52 PM 68.0 °F - 62.1 °F 81% 29.88 in 9.0 mi Calm Calm - N/A   Clear
11:52 PM 66.0 °F - 61.0 °F 84% 29.87 in 9.0 mi Calm Calm - N/A   Clear